Location: Sinnemahoning State Park
(41.4031°N, 78.0230°W)
Time: 16:34:56
(UTC-04:00)

Daily predictions for brighter satellites

Satellite Brightness Start Highest point End
(mag) Time Altitude Azimuth Time Altitude Azimuth Time Altitude Azimuth
Resurs 01 Rocket 2.4 20:59:56 10° S 21:04:17 56° W 21:08:40 10° NNW
Tiangong 2 1.9 21:02:36 10° W 21:05:39 40° SSW 21:08:41 10° SE
Cosmos 2082 Rocket 4.2 21:01:23 10° NW 21:06:05 28° WSW 21:10:49 10° SSW
NOSS 3-2 (C) 3.7 21:00:18 10° SW 21:06:17 78° NW 21:12:55 10° NNE
Cosmos 1900 4.5 21:01:07 10° NNW 21:06:19 86° ENE 21:11:28 10° SSE
Meteor 2-3 Rocket 3.7 21:05:34 10° S 21:11:16 76° E 21:16:57 10° NNE
CZ-4B DEB 3.6 21:10:03 10° SE 21:12:38 29° ENE 21:15:14 10° N
Meteor 1-26 Rocket 4.4 21:08:48 10° NNW 21:14:29 82° W 21:20:14 10° S
Cosmos 2346 Rocket 4.4 21:08:31 10° S 21:14:32 76° E 21:20:37 10° N
Cosmos 1825 3.5 21:11:47 10° SE 21:14:47 23° E 21:17:46 10° NE
Okean 1-7 3.7 21:10:45 10° N 21:14:52 37° ENE 21:18:57 10° SE
CENTAUR R/B 2.7 21:11:38 10° S 21:17:15 46° ESE 21:23:35 10° NE
Cosmos 1782 3.6 21:16:58 10° N 21:20:38 33° ENE 21:24:10 10° SE
Cosmos 2344 4.2 21:14:23 10° S 21:21:05 34° ESE 21:28:10 10° NE
Shenzhou-11 Module 3.7 21:19:10 10° W 21:21:42 24° SSW 21:24:14 10° SSE
SPOT 5 4.4 21:17:49 10° ESE 21:22:02 24° ENE 21:26:11 10° NNE
Aureole 1 4.2 21:20:57 10° SSW 21:23:57 83° ESE 21:27:28 10° NNE
Envisat 3.4 21:19:10 10° S 21:24:12 67° WSW 21:29:17 10° NNW
H-2A ROCKET BODY 3.5 21:27:58 10° SSW 21:29:53 14° SSE 21:32:06 11° SE
Cosmos 1703 Rocket 3.5 21:27:28 10° N 21:31:55 87° E 21:36:17 10° S
DNEPR-1 R/B 3.9 21:28:19 10° SSW 21:33:31 56° ESE 21:37:59 10° NE
Cosmos 1943 Rocket 2.4 21:28:24 10° S 21:33:46 49° ESE 21:39:06 10° NE
Cosmos 1892 3.9 21:30:40 10° SSW 21:34:22 45° W 21:38:04 10° N
Cosmos 1269 Rocket 4.5 21:31:53 10° N 21:36:59 46° ENE 21:41:09 15° SE
Cosmos 1125 Rocket 3.5 21:34:35 10° S 21:39:45 62° ESE 21:44:54 10° NNE
Cosmos 1862 4.3 21:38:56 15° SE 21:41:24 27° E 21:44:47 10° NNE
Helios 1B rocket 2.5 21:38:32 10° NNE 21:42:40 84° WNW 21:46:46 10° SSW
Cosmos 1733 Rocket 4.3 21:40:35 16° SE 21:42:47 23° E 21:46:13 10° NE
Cosmos 2084 3.8 21:43:10 10° NW 21:46:55 52° WSW 21:50:04 15° SSE
Cosmos 1340 3.1 21:45:40 10° N 21:49:19 44° ENE 21:51:34 20° SE
Cosmos 2263 4.2 21:43:36 10° SSW 21:49:22 85° ESE 21:55:08 10° NNE
NOAA 11 4.2 21:44:20 12° SSE 21:49:25 71° ENE 21:54:54 10° N
Cosmos 1869 Rocket 3.7 21:46:15 10° SSW 21:50:34 76° W 21:54:56 10° N
Lacrosse 4 Rocket 2.0 21:47:26 10° NNW 21:51:49 48° ENE 21:54:34 20° SE
SAR-Lupe-4 3.7 21:52:14 14° S 21:55:16 75° WSW 21:58:52 10° NNW
Cosmos 2369 Rocket 2.9 21:53:39 10° SW 21:59:13 59° WNW 22:04:52 10° NNE
SL-08 RB Rocket 4.1 22:00:57 22° SE 22:03:43 49° ENE 22:08:12 10° N
YAOGAN 6 4.1 22:01:17 10° SSW 22:04:42 35° W 22:08:08 10° NNW
Cosmos 158 Rocket 3.8 22:01:59 10° NNW 22:06:53 84° WSW 22:10:14 20° SSE
Cosmos 1606 2.9 22:03:44 10° NNW 22:07:30 70° W 22:10:13 18° S
Cosmos 1833 4.3 22:02:23 10° NNW 22:08:10 67° ENE 22:11:43 24° SE
Cosmos 2221 Rocket 4.4 22:06:46 10° NNW 22:11:04 50° W 22:15:20 10° SSW
H-2A R/B 2.4 22:11:05 24° SE 22:14:10 53° ENE 22:19:20 10° N
COSMOS 2455 4.2 22:09:23 10° WSW 22:15:03 42° NW 22:20:46 10° NNE
GPS 2-04 Rocket1 3.7 22:15:30 10° WSW 22:18:35 25° SSW 22:18:45 25° S
MetOp-B 4.2 22:14:45 18° S 22:18:46 79° WSW 22:24:10 10° NNW
ATLAS 5 CENTAUR R/B 2.4 22:12:48 10° NW 22:18:51 85° WSW 22:22:52 25° SSE
Cosmos 1674 Rocket 4.0 22:15:42 10° N 22:19:50 42° ENE 22:21:11 32° ESE
Lacrosse 5 rocket 3.2 22:17:04 10° W 22:20:15 29° NW 22:23:30 10° NNE
Landsat 7 4.4 22:21:55 29° ESE 22:23:43 41° ENE 22:28:11 10° N
ERS-1 Rocket 3.7 22:23:38 15° S 22:27:41 50° W 22:32:35 10° NNW
Cosmos 1656 Rocket 3.6 22:25:33 13° S 22:30:18 65° ESE 22:35:47 10° NNE
BREEZE-M DEB (TANK) 3.6 22:27:17 10° NW 22:30:45 72° NNE 22:40:24 17° ESE
ARGOS 3.3 22:28:53 22° S 22:32:22 72° WSW 22:37:45 10° NNW
Cosmos 1408 4.4 22:29:29 10° SW 22:32:50 31° WNW 22:36:13 10° NNW
Meteor 1-27 Rocket 3.8 22:28:11 10° NNW 22:33:56 78° W 22:37:24 24° S
H-2A R/B 3.5 22:33:43 20° ENE 22:34:19 21° ENE 22:37:24 10° NNE
Nadezhda 4 Rocket 3.9 22:30:14 19° S 22:34:54 80° E 22:41:05 10° N
Okean 3 4.1 22:31:05 10° N 22:34:59 37° ENE 22:35:35 35° E
Cosmos 1092 Rocket 4.1 22:31:56 28° SSE 22:35:05 56° E 22:41:04 10° NNE
ISS -1.1 22:34:09 10° WNW 22:36:44 21° NNW 22:39:19 10° NNE
IGS 5A 4.3 22:36:31 32° E 22:37:12 34° ENE 22:40:58 10° N
Terra 2.5 22:37:34 33° ESE 22:38:53 41° ENE 22:43:21 10° N
USA 215 3.2 22:37:58 30° SE 22:41:31 80° SW 22:48:08 10° NW
Alouette 2 Rocket 4.5 22:34:02 10° S 22:42:03 89° ESE 22:47:07 10° NNE
YAOGAN 11 4.4 22:40:30 31° S 22:42:34 67° WSW 22:47:04 10° NNW
Cosmos 1908 Rocket 3.5 22:55:36 57° SE 22:56:15 66° E 23:00:40 10° NNE
Cosmos 1437 3.0 22:53:21 10° N 22:56:09 64° N 22:56:09 64° N
Intercosmos 25 Rocket 4.3 22:50:31 10° N 22:57:34 71° W 22:59:26 37° SSW
SPOT 5 3.9 22:56:52 24° SSW 22:59:45 47° W 23:04:52 10° NNW
Milstar 3 3.7 22:55:54 10° WSW 23:04:43 33° S 23:05:32 32° S
Cosmos 2251 Rocket 3.4 23:01:11 10° NNW 23:06:27 85° ENE 23:07:41 54° SSE
CENTAUR R/B 4.1 23:02:20 10° WSW 23:08:02 37° NW 23:14:29 10° NNE
Okean 2 Rocket 4.1 23:08:46 32° ENE 23:08:46 32° ENE 23:12:07 10° NNE
Cosmos 2227 Rocket 3.5 23:03:24 10° N 23:08:14 28° NE 23:10:00 24° E
DMSP B5D2-2 4.1 23:03:37 10° N 23:08:51 80° WNW 23:11:06 35° SSW
SPOT 1/Viking Rocket 4.3 23:10:32 31° SSW 23:12:37 47° W 23:17:39 10° NNW
Cosmos 2219 3.1 23:10:01 10° NNW 23:15:49 85° ENE 23:17:12 54° SSE
Spot 4 4.2 23:17:07 48° E 23:17:34 49° ENE 23:22:12 10° N
Cosmos 1943 Rocket 4.3 23:13:12 10° WSW 23:17:46 25° NW 23:22:18 10° N
Meteor 1-14 Rocket 4.2 23:17:48 46° S 23:19:39 85° E 23:25:29 10° N
deb Chang Zheng 4 4.0 23:15:59 10° NNE 23:19:47 49° ENE 23:19:47 49° ENE
CZ-4 R/B 4.0 23:16:13 10° NNE 23:20:28 53° E 23:20:28 53° E
Cosmos 1812 3.0 23:17:11 10° N 23:20:33 62° NNE 23:20:33 62° NNE
Cosmos 1782 Rocket 3.5 23:23:54 75° ENE 23:23:54 75° ENE 23:28:08 10° N
Cosmos 2195 Rocket 4.5 23:21:49 42° S 23:24:12 88° W 23:30:34 10° N
Lacrosse 4 Rocket 3.6 23:27:13 10° WNW 23:30:07 17° WSW 23:30:55 16° WSW
GEOS 3 Rocket 3.4 23:30:20 67° SSE 23:31:03 84° SW 23:36:20 10° NW
Sich 1 Rocket 4.2 23:34:13 44° WSW 23:34:58 50° W 23:39:17 10° N
SL-19 R/B 4.4 23:29:35 10° NNE 23:35:41 88° WNW 23:37:41 47° SSW
ATLAS CENTAUR R/B 2.0 23:39:00 49° WNW 23:39:13 50° NW 23:42:59 10° NNE
Gbstr 26 Del rocket 3.8 23:35:14 10° NW 23:39:20 40° NNE 23:39:33 40° NNE
Cosmos 405 Rocket 3.6 23:39:11 10° NNW 23:41:56 46° NNW 23:41:56 46° NNW
Cosmos 1655 Rocket 3.9 23:42:10 58° S 23:43:33 88° E 23:49:49 10° N
Cosmos 1975 Rocket 3.2 23:41:09 10° NNW 23:45:23 70° WNW 23:45:23 70° WNW
CZ-4C R/B 4.0 23:46:58 54° NNE 23:46:58 54° NNE 23:50:24 10° N
Okean 1 4.1 23:47:21 10° N 23:50:24 51° N 23:50:24 51° N
Cosmos 1867 4.4 23:46:39 10° NW 23:51:38 37° WSW 23:51:55 36° WSW
Meteor 1-18 Rocket 4.3 23:46:56 10° NNW 23:52:39 68° W 23:53:31 59° SW
ALOS 2 4.2 23:53:43 26° ENE 23:53:43 26° ENE 23:56:54 10° NNE
Cosmos 2026 Rocket 4.3 23:51:36 40° SW 23:53:39 60° W 23:59:51 10° N
H-2A R/B 4.1 23:51:42 16° WSW 23:53:50 20° W 23:57:43 10° NW
